owner,sensor,date,latitude,longitude,vertical_datum,direction_of_sea_water_velocity,sea_water_speed,upward_sea_water_velocity,qcFlag 
TABS,ioos:station:wmo:42050:1,2008-06-01T00:00:00Z,28.8425,-94.2433,2.0,274.7112444,13.51565759,-99999.0,'11111222,11111222,99999999' 
TABS,ioos:station:wmo:42050:1,2008-06-01T00:30:00Z,28.8425,-94.2433,2.0,270.1480898,11.64003866,-99999.0,'11111222,11111222,99999999' 
TABS,ioos:station:wmo:42050:1,2008-06-01T01:00:00Z,28.8425,-94.2433,2.0,271.0730989,14.42252752,-99999.0,'11111222,11111222,99999999' 
TABS,ioos:station:wmo:42050:1,2008-06-01T01:30:00Z,28.8425,-94.2433,2.0,265.0593883,14.2830599,-99999.0,'11111222,11111222,99999999' 
TABS,ioos:station:wmo:42050:1,2008-06-01T02:00:00Z,28.8425,-94.2433,2.0,280.1845565,26.7514822,-99999.0,'11111222,11111222,99999999' 
TABS,ioos:station:wmo:42050:1,2008-06-01T02:30:00Z,28.8425,-94.2433,2.0,296.8957001,24.82523917,-99999.0,'11111222,11111222,99999999' 
TABS,ioos:station:wmo:42050:1,2008-06-01T03:00:00Z,28.8425,-94.2433,2.0,308.0602063,24.46127552,-99999.0,'11111222,11111222,99999999' 
TABS,ioos:station:wmo:42050:1,2008-06-01T03:30:00Z,28.8425,-94.2433,2.0,320.0951313,17.67679835,-99999.0,'11111222,11111222,99999999' 
TABS,ioos:station:wmo:42050:1,2008-06-01T04:00:00Z,28.8425,-94.2433,2.0,332.6824959,18.04215342,-99999.0,'11111222,11111222,99999999' 
TABS,ioos:station:wmo:42050:1,2008-06-01T04:30:00Z,28.8425,-94.2433,2.0,342.7898948,12.13326831,-99999.0,'11111222,11111222,99999999' 
TABS,ioos:station:wmo:42050:1,2008-06-01T05:00:00Z,28.8425,-94.2433,2.0,345.259761,9.471731626,-99999.0,'11133222,11111222,99999999' 
TABS,ioos:station:wmo:42050:1,2008-06-01T05:30:00Z,28.8425,-94.2433,2.0,348.4094457,10.40212478,-99999.0,'11111222,11111222,99999999' 
TABS,ioos:station:wmo:42050:1,2008-06-01T06:00:00Z,28.8425,-94.2433,2.0,13.78803113,8.391811485,-99999.0,'11133222,11111222,99999999' 
TABS,ioos:station:wmo:42050:1,2008-06-01T06:30:00Z,28.8425,-94.2433,2.0,36.14281407,8.036647311,-99999.0,'11133222,11111222,99999999' 
TABS,ioos:station:wmo:42050:1,2008-06-01T07:00:00Z,28.8425,-94.2433,2.0,38.33427027,12.91421697,-99999.0,'11111222,11111222,99999999' 
TABS,ioos:station:wmo:42050:1,2008-06-01T07:30:00Z,28.8425,-94.2433,2.0,56.37278034,12.65826607,-99999.0,'11111222,11111222,99999999' 
TABS,ioos:station:wmo:42050:1,2008-06-01T08:00:00Z,28.8425,-94.2433,2.0,66.29308626,11.83905402,-99999.0,'11111222,11111222,99999999' 
TABS,ioos:station:wmo:42050:1,2008-06-01T08:30:00Z,28.8425,-94.2433,2.0,87.54184777,11.89094193,-99999.0,'11111222,11111222,99999999' 
TABS,ioos:station:wmo:42050:1,2008-06-01T09:00:00Z,28.8425,-94.2433,2.0,77.77252445,11.75670872,-99999.0,'11111222,11111222,99999999' 
TABS,ioos:station:wmo:42050:1,2008-06-01T09:30:00Z,28.8425,-94.2433,2.0,88.44975201,14.78541173,-99999.0,'11111222,11111222,99999999' 
TABS,ioos:station:wmo:42050:1,2008-06-01T10:00:00Z,28.8425,-94.2433,2.0,87.77443308,17.25301423,-99999.0,'11111222,11111222,99999999' 
TABS,ioos:station:wmo:42050:1,2008-06-01T10:30:00Z,28.8425,-94.2433,2.0,98.35485494,15.14068691,-99999.0,'11111222,11111222,99999999' 
TABS,ioos:station:wmo:42050:1,2008-06-01T11:00:00Z,28.8425,-94.2433,2.0,101.5207723,7.460308305,-99999.0,'11133222,11111222,99999999' 
TABS,ioos:station:wmo:42050:1,2008-06-01T11:30:00Z,28.8425,-94.2433,2.0,127.5458835,13.89896759,-99999.0,'11111222,11111222,99999999' 
TABS,ioos:station:wmo:42050:1,2008-06-01T12:00:00Z,28.8425,-94.2433,2.0,119.5918259,15.32950749,-99999.0,'11111222,11111222,99999999' 
TABS,ioos:station:wmo:42050:1,2008-06-01T12:30:00Z,28.8425,-94.2433,2.0,131.7573625,21.50218594,-99999.0,'11111222,11111222,99999999' 
TABS,ioos:station:wmo:42050:1,2008-06-01T13:00:00Z,28.8425,-94.2433,2.0,129.3956612,12.88852203,-99999.0,'11111222,11111222,99999999' 
TABS,ioos:station:wmo:42050:1,2008-06-01T13:30:00Z,28.8425,-94.2433,2.0,139.7859971,13.47494341,-99999.0,'11111222,11111222,99999999' 
TABS,ioos:station:wmo:42050:1,2008-06-01T14:00:00Z,28.8425,-94.2433,2.0,145.9094884,12.70294454,-99999.0,'11111222,11111222,99999999' 
TABS,ioos:station:wmo:42050:1,2008-06-01T14:30:00Z,28.8425,-94.2433,2.0,153.0805815,11.57410904,-99999.0,'11111222,11111222,99999999' 
TABS,ioos:station:wmo:42050:1,2008-06-01T15:00:00Z,28.8425,-94.2433,2.0,152.1908138,12.15365789,-99999.0,'11111222,11111222,99999999' 
TABS,ioos:station:wmo:42050:1,2008-06-01T15:30:00Z,28.8425,-94.2433,2.0,155.384974,14.98138845,-99999.0,'11111222,11111222,99999999' 
TABS,ioos:station:wmo:42050:1,2008-06-01T16:00:00Z,28.8425,-94.2433,2.0,177.2904989,11.21253317,-99999.0,'11111222,11111222,99999999' 
TABS,ioos:station:wmo:42050:1,2008-06-01T16:30:00Z,28.8425,-94.2433,2.0,215.3534036,13.75681649,-99999.0,'11111222,11111222,99999999' 
TABS,ioos:station:wmo:42050:1,2008-06-01T17:00:00Z,28.8425,-94.2433,2.0,213.0158631,15.56319055,-99999.0,'11111222,11111222,99999999' 
TABS,ioos:station:wmo:42050:1,2008-06-01T17:30:00Z,28.8425,-94.2433,2.0,210.0989169,13.63912021,-99999.0,'11111222,11111222,99999999' 
TABS,ioos:station:wmo:42050:1,2008-06-01T18:00:00Z,28.8425,-94.2433,2.0,211.9178647,14.6205677,-99999.0,'11111222,11111222,99999999' 
TABS,ioos:station:wmo:42050:1,2008-06-01T18:30:00Z,28.8425,-94.2433,2.0,195.3231334,16.19576488,-99999.0,'11111222,11111222,99999999' 
TABS,ioos:station:wmo:42050:1,2008-06-01T19:00:00Z,28.8425,-94.2433,2.0,200.9785032,20.30602127,-99999.0,'11111222,11111222,99999999' 
TABS,ioos:station:wmo:42050:1,2008-06-01T19:30:00Z,28.8425,-94.2433,2.0,208.0314073,27.25765397,-99999.0,'11111222,11111222,99999999' 
TABS,ioos:station:wmo:42050:1,2008-06-01T20:00:00Z,28.8425,-94.2433,2.0,223.6444876,25.4134551,-99999.0,'11111222,11111222,99999999' 
TABS,ioos:station:wmo:42050:1,2008-06-01T20:30:00Z,28.8425,-94.2433,2.0,222.8920394,22.30309396,-99999.0,'11111222,11111222,99999999' 
TABS,ioos:station:wmo:42050:1,2008-06-01T21:00:00Z,28.8425,-94.2433,2.0,235.4426354,28.59529507,-99999.0,'11111222,11111222,99999999' 
TABS,ioos:station:wmo:42050:1,2008-06-01T21:30:00Z,28.8425,-94.2433,2.0,236.4700177,27.73511853,-99999.0,'11111222,11111222,99999999' 
TABS,ioos:station:wmo:42050:1,2008-06-01T22:00:00Z,28.8425,-94.2433,2.0,235.7088553,38.35685336,-99999.0,'11111222,11111222,99999999' 
TABS,ioos:station:wmo:42050:1,2008-06-01T22:30:00Z,28.8425,-94.2433,2.0,242.8380256,21.9057093,-99999.0,'11111222,11111222,99999999' 
TABS,ioos:station:wmo:42050:1,2008-06-01T23:00:00Z,28.8425,-94.2433,2.0,245.858316,34.15742672,-99999.0,'11111222,11111222,99999999' 
TABS,ioos:station:wmo:42050:1,2008-06-01T23:30:00Z,28.8425,-94.2433,2.0,250.8988201,42.72209382,-99999.0,'11111222,11111222,99999999' 
TABS,ioos:station:wmo:42050:1,2008-06-02T00:00:00Z,28.8425,-94.2433,2.0,257.589106,39.92288191,-99999.0,'11111222,11111222,99999999' 
TABS,ioos:station:wmo:42050:1,2008-06-02T00:30:00Z,28.8425,-94.2433,2.0,279.0958612,21.82441294,-99999.0,'11111222,11111222,99999999' 
TABS,ioos:station:wmo:42050:1,2008-06-02T01:00:00Z,28.8425,-94.2433,2.0,280.2976306,20.19527172,-99999.0,'11111222,11111222,99999999' 
TABS,ioos:station:wmo:42050:1,2008-06-02T04:30:00Z,28.8425,-94.2433,2.0,295.3067178,32.16689136,-99999.0,'11111222,11111222,99999999' 
TABS,ioos:station:wmo:42050:1,2008-06-02T05:00:00Z,28.8425,-94.2433,2.0,299.6984662,31.91166715,-99999.0,'11111222,11111222,99999999' 
TABS,ioos:station:wmo:42050:1,2008-06-02T05:30:00Z,28.8425,-94.2433,2.0,304.483972,29.63770065,-99999.0,'11111222,11111222,99999999' 
TABS,ioos:station:wmo:42050:1,2008-06-02T06:00:00Z,28.8425,-94.2433,2.0,315.0300333,27.26604115,-99999.0,'11111222,11111222,99999999' 
TABS,ioos:station:wmo:42050:1,2008-06-02T06:30:00Z,28.8425,-94.2433,2.0,314.7801183,27.59858149,-99999.0,'11111222,11111222,99999999' 
TABS,ioos:station:wmo:42050:1,2008-06-02T07:00:00Z,28.8425,-94.2433,2.0,315.66139,22.06320013,-99999.0,'11111222,11111222,99999999' 
TABS,ioos:station:wmo:42050:1,2008-06-02T07:30:00Z,28.8425,-94.2433,2.0,319.9061678,17.03296216,-99999.0,'11111222,11111222,99999999' 
TABS,ioos:station:wmo:42050:1,2008-06-02T08:00:00Z,28.8425,-94.2433,2.0,318.6365162,11.81833322,-99999.0,'11111222,11111222,99999999' 
TABS,ioos:station:wmo:42050:1,2008-06-02T08:30:00Z,28.8425,-94.2433,2.0,323.8155161,9.366669632,-99999.0,'11133222,11111222,99999999' 
TABS,ioos:station:wmo:42050:1,2008-06-02T09:00:00Z,28.8425,-94.2433,2.0,314.4681733,4.568106829,-99999.0,'11133222,11111222,99999999' 
TABS,ioos:station:wmo:42050:1,2008-06-02T09:30:00Z,28.8425,-94.2433,2.0,290.0990477,3.812151623,-99999.0,'11133222,11111222,99999999' 
TABS,ioos:station:wmo:42050:1,2008-06-02T10:00:00Z,28.8425,-94.2433,2.0,26.56519952,0.245967478,-99999.0,'11133222,11111222,99999999' 
TABS,ioos:station:wmo:42050:1,2008-06-02T10:30:00Z,28.8425,-94.2433,2.0,246.6144127,1.61245155,-99999.0,'11133222,11111222,99999999' 
TABS,ioos:station:wmo:42050:1,2008-06-02T11:00:00Z,28.8425,-94.2433,2.0,152.9077858,3.403439437,-99999.0,'11133222,11111222,99999999' 
TABS,ioos:station:wmo:42050:1,2008-06-02T11:30:00Z,28.8425,-94.2433,2.0,136.9748242,4.308839751,-99999.0,'11133222,11111222,99999999' 
TABS,ioos:station:wmo:42050:1,2008-06-02T12:00:00Z,28.8425,-94.2433,2.0,170.2434528,2.242431716,-99999.0,'11133222,11111222,99999999' 
TABS,ioos:station:wmo:42050:1,2008-06-02T12:30:00Z,28.8425,-94.2433,2.0,159.3748238,3.889280139,-99999.0,'11133222,11111222,99999999' 
TABS,ioos:station:wmo:42050:1,2008-06-02T13:00:00Z,28.8425,-94.2433,2.0,201.9046943,3.082547648,-99999.0,'11133222,11111222,99999999' 
TABS,ioos:station:wmo:42050:1,2008-06-02T13:30:00Z,28.8425,-94.2433,2.0,135.5597693,2.170921463,-99999.0,'11133222,11111222,99999999' 
TABS,ioos:station:wmo:42050:1,2008-06-02T14:00:00Z,28.8425,-94.2433,2.0,166.3728265,5.093378054,-99999.0,'11133222,11111222,99999999' 
TABS,ioos:station:wmo:42050:1,2008-06-02T14:30:00Z,28.8425,-94.2433,2.0,153.9068446,4.342591392,-99999.0,'11133222,11111222,99999999' 
TABS,ioos:station:wmo:42050:1,2008-06-02T15:00:00Z,28.8425,-94.2433,2.0,162.0450743,7.169135234,-99999.0,'11133222,11111222,99999999' 
TABS,ioos:station:wmo:42050:1,2008-06-02T15:30:00Z,28.8425,-94.2433,2.0,156.3597716,6.134818661,-99999.0,'11133222,11111222,99999999' 
TABS,ioos:station:wmo:42050:1,2008-06-02T16:00:00Z,28.8425,-94.2433,2.0,160.5240016,8.877978373,-99999.0,'11133222,11111222,99999999' 
TABS,ioos:station:wmo:42050:1,2008-06-02T16:30:00Z,28.8425,-94.2433,2.0,165.4292625,9.102757824,-99999.0,'11133222,11111222,99999999' 
TABS,ioos:station:wmo:42050:1,2008-06-02T17:00:00Z,28.8425,-94.2433,2.0,173.7614714,9.938853053,-99999.0,'11133222,11111222,99999999' 
TABS,ioos:station:wmo:42050:1,2008-06-02T17:30:00Z,28.8425,-94.2433,2.0,182.0733813,17.41140144,-99999.0,'11111222,11111222,99999999' 
TABS,ioos:station:wmo:42050:1,2008-06-02T18:00:00Z,28.8425,-94.2433,2.0,179.971579,20.31000246,-99999.0,'11111222,11111222,99999999' 
TABS,ioos:station:wmo:42050:1,2008-06-02T18:30:00Z,28.8425,-94.2433,2.0,182.207821,20.24503149,-99999.0,'11111222,11111222,99999999' 
TABS,ioos:station:wmo:42050:1,2008-06-02T19:00:00Z,28.8425,-94.2433,2.0,188.6087432,25.71978616,-99999.0,'11111222,11111222,99999999' 
TABS,ioos:station:wmo:42050:1,2008-06-02T19:30:00Z,28.8425,-94.2433,2.0,190.0154942,25.70169255,-99999.0,'11111222,11111222,99999999' 
TABS,ioos:station:wmo:42050:1,2008-06-02T20:00:00Z,28.8425,-94.2433,2.0,191.6422787,29.73170698,-99999.0,'11111222,11111222,99999999' 
TABS,ioos:station:wmo:42050:1,2008-06-02T20:30:00Z,28.8425,-94.2433,2.0,196.7006056,34.0670075,-99999.0,'11111222,11111222,99999999' 
TABS,ioos:station:wmo:42050:1,2008-06-02T21:00:00Z,28.8425,-94.2433,2.0,201.5845477,34.87569067,-99999.0,'11111222,11111222,99999999' 
TABS,ioos:station:wmo:42050:1,2008-06-02T21:30:00Z,28.8425,-94.2433,2.0,202.0515725,34.83863516,-99999.0,'11111222,11111222,99999999' 
TABS,ioos:station:wmo:42050:1,2008-06-02T22:00:00Z,28.8425,-94.2433,2.0,205.1273219,39.39849997,-99999.0,'11111222,11111222,99999999' 
TABS,ioos:station:wmo:42050:1,2008-06-02T22:30:00Z,28.8425,-94.2433,2.0,206.1316939,40.23248439,-99999.0,'11111222,11111222,99999999' 
TABS,ioos:station:wmo:42050:1,2008-06-02T23:00:00Z,28.8425,-94.2433,2.0,214.8157299,43.47192772,-99999.0,'11111222,11111222,99999999' 
TABS,ioos:station:wmo:42050:1,2008-06-02T23:30:00Z,28.8425,-94.2433,2.0,219.8351393,46.6604865,-99999.0,'11111222,11111222,99999999' 
TABS,ioos:station:wmo:42050:1,2008-06-03T00:00:00Z,28.8425,-94.2433,2.0,224.7940296,49.25030457,-99999.0,'11111222,11111222,99999999' 
TABS,ioos:station:wmo:42050:1,2008-06-03T00:30:00Z,28.8425,-94.2433,2.0,228.6746746,44.56866388,-99999.0,'11111222,11111222,99999999' 
TABS,ioos:station:wmo:42050:1,2008-06-03T01:00:00Z,28.8425,-94.2433,2.0,235.1868522,33.26343638,-99999.0,'11111222,11111222,99999999' 
TABS,ioos:station:wmo:42050:1,2008-06-03T01:30:00Z,28.8425,-94.2433,2.0,249.4182677,21.19264259,-99999.0,'11111222,11111222,99999999' 
TABS,ioos:station:wmo:42050:1,2008-06-03T02:00:00Z,28.8425,-94.2433,2.0,250.7307603,51.06038092,-99999.0,'11111222,11111222,99999999' 
TABS,ioos:station:wmo:42050:1,2008-06-03T02:30:00Z,28.8425,-94.2433,2.0,252.7412721,52.51436851,-99999.0,'11111222,11111222,99999999' 
TABS,ioos:station:wmo:42050:1,2008-06-03T03:00:00Z,28.8425,-94.2433,2.0,261.2169108,51.28129581,-99999.0,'11111222,11111222,99999999' 
TABS,ioos:station:wmo:42050:1,2008-06-03T03:30:00Z,28.8425,-94.2433,2.0,267.1614669,49.48069219,-99999.0,'11111222,11111222,99999999' 
TABS,ioos:station:wmo:42050:1,2008-06-03T04:00:00Z,28.8425,-94.2433,2.0,272.8817596,48.34111397,-99999.0,'11111222,11111222,99999999' 
TABS,ioos:station:wmo:42050:1,2008-06-03T04:30:00Z,28.8425,-94.2433,2.0,276.2043983,45.52662957,-99999.0,'11111222,11111222,99999999' 
TABS,ioos:station:wmo:42050:1,2008-06-03T05:00:00Z,28.8425,-94.2433,2.0,282.2936435,42.74,-99999.0,'11111222,11111222,99999999' 
TABS,ioos:station:wmo:42050:1,2008-06-03T05:30:00Z,28.8425,-94.2433,2.0,292.4144336,41.33257432,-99999.0,'11111222,11111222,99999999' 
TABS,ioos:station:wmo:42050:1,2008-06-03T06:00:00Z,28.8425,-94.2433,2.0,301.4109127,40.02555684,-99999.0,'11111222,11111222,99999999' 
TABS,ioos:station:wmo:42050:1,2008-06-03T06:30:00Z,28.8425,-94.2433,2.0,309.8058989,35.30232854,-99999.0,'11111222,11111222,99999999' 
TABS,ioos:station:wmo:42050:1,2008-06-03T07:00:00Z,28.8425,-94.2433,2.0,313.2729548,32.37191684,-99999.0,'11111222,11111222,99999999' 
TABS,ioos:station:wmo:42050:1,2008-06-03T07:30:00Z,28.8425,-94.2433,2.0,325.2224604,29.36557338,-99999.0,'11111222,11111222,99999999' 
TABS,ioos:station:wmo:42050:1,2008-06-03T08:00:00Z,28.8425,-94.2433,2.0,341.0651988,28.25918966,-99999.0,'11111222,11111222,99999999' 
TABS,ioos:station:wmo:42050:1,2008-06-03T08:30:00Z,28.8425,-94.2433,2.0,352.808865,23.56537502,-99999.0,'11111222,11111222,99999999' 
TABS,ioos:station:wmo:42050:1,2008-06-03T09:00:00Z,28.8425,-94.2433,2.0,5.615305964,22.68886952,-99999.0,'11111222,11111222,99999999' 
TABS,ioos:station:wmo:42050:1,2008-06-03T09:30:00Z,28.8425,-94.2433,2.0,15.79627452,21.08629176,-99999.0,'11111222,11111222,99999999' 
TABS,ioos:station:wmo:42050:1,2008-06-03T10:00:00Z,28.8425,-94.2433,2.0,18.1925597,20.91549187,-99999.0,'11111222,11111222,99999999' 
TABS,ioos:station:wmo:42050:1,2008-06-03T10:30:00Z,28.8425,-94.2433,2.0,33.00804374,19.56843632,-99999.0,'11111222,11111222,99999999' 
TABS,ioos:station:wmo:42050:1,2008-06-03T11:00:00Z,28.8425,-94.2433,2.0,39.69520529,14.60775479,-99999.0,'11111222,11111222,99999999' 
TABS,ioos:station:wmo:42050:1,2008-06-03T11:30:00Z,28.8425,-94.2433,2.0,53.44327641,21.96032787,-99999.0,'11111222,11111222,99999999' 
TABS,ioos:station:wmo:42050:1,2008-06-03T12:00:00Z,28.8425,-94.2433,2.0,57.3258094,23.15405148,-99999.0,'11111222,11111222,99999999' 
TABS,ioos:station:wmo:42050:1,2008-06-03T12:30:00Z,28.8425,-94.2433,2.0,67.37401473,21.41846166,-99999.0,'11111222,11111222,99999999' 
TABS,ioos:station:wmo:42050:1,2008-06-03T13:00:00Z,28.8425,-94.2433,2.0,65.67718724,21.14703289,-99999.0,'11111222,11111222,99999999' 
TABS,ioos:station:wmo:42050:1,2008-06-03T13:30:00Z,28.8425,-94.2433,2.0,69.56810467,23.77579441,-99999.0,'11111222,11111222,99999999' 
TABS,ioos:station:wmo:42050:1,2008-06-03T14:00:00Z,28.8425,-94.2433,2.0,72.69065093,28.3331502,-99999.0,'11111222,11111222,99999999' 
TABS,ioos:station:wmo:42050:1,2008-06-03T14:30:00Z,28.8425,-94.2433,2.0,98.45929979,21.41296103,-99999.0,'11111222,11111222,99999999' 
TABS,ioos:station:wmo:42050:1,2008-06-03T15:00:00Z,28.8425,-94.2433,2.0,93.10335206,31.58632141,-99999.0,'11111222,11111222,99999999' 
TABS,ioos:station:wmo:42050:1,2008-06-03T15:30:00Z,28.8425,-94.2433,2.0,98.06071529,33.87468229,-99999.0,'11111222,11111222,99999999' 
TABS,ioos:station:wmo:42050:1,2008-06-03T16:00:00Z,28.8425,-94.2433,2.0,104.5266144,36.83766008,-99999.0,'11111222,11111222,99999999' 
TABS,ioos:station:wmo:42050:1,2008-06-03T16:30:00Z,28.8425,-94.2433,2.0,105.891835,27.93777729,-99999.0,'11111222,11111222,99999999' 
TABS,ioos:station:wmo:42050:1,2008-06-03T17:00:00Z,28.8425,-94.2433,2.0,119.62113,34.4755348,-99999.0,'11111222,11111222,99999999' 
TABS,ioos:station:wmo:42050:1,2008-06-03T17:30:00Z,28.8425,-94.2433,2.0,121.7334449,23.23329507,-99999.0,'11111222,11111222,99999999' 
TABS,ioos:station:wmo:42050:1,2008-06-03T18:00:00Z,28.8425,-94.2433,2.0,133.1292524,38.5578682,-99999.0,'11111222,11111222,99999999' 
TABS,ioos:station:wmo:42050:1,2008-06-03T18:30:00Z,28.8425,-94.2433,2.0,142.5476517,41.1281242,-99999.0,'11111222,11111222,99999999' 
TABS,ioos:station:wmo:42050:1,2008-06-03T19:00:00Z,28.8425,-94.2433,2.0,143.839939,30.50634196,-99999.0,'11111222,11111222,99999999' 
TABS,ioos:station:wmo:42050:1,2008-06-03T19:30:00Z,28.8425,-94.2433,2.0,156.9864778,36.96164093,-99999.0,'11111222,11111222,99999999' 
TABS,ioos:station:wmo:42050:1,2008-06-03T20:00:00Z,28.8425,-94.2433,2.0,161.1220145,39.68460785,-99999.0,'11111222,11111222,99999999' 
TABS,ioos:station:wmo:42050:1,2008-06-03T20:30:00Z,28.8425,-94.2433,2.0,162.6147752,37.45081708,-99999.0,'11111222,11111222,99999999' 
TABS,ioos:station:wmo:42050:1,2008-06-03T21:00:00Z,28.8425,-94.2433,2.0,169.909218,41.38006887,-99999.0,'11111222,11111222,99999999' 
TABS,ioos:station:wmo:42050:1,2008-06-03T21:30:00Z,28.8425,-94.2433,2.0,175.4605676,43.46633755,-99999.0,'11111222,11111222,99999999' 
TABS,ioos:station:wmo:42050:1,2008-06-03T22:00:00Z,28.8425,-94.2433,2.0,179.0652626,42.30562729,-99999.0,'11111222,11111222,99999999' 
TABS,ioos:station:wmo:42050:1,2008-06-03T22:30:00Z,28.8425,-94.2433,2.0,183.5183928,43.34170278,-99999.0,'11111222,11111222,99999999' 
TABS,ioos:station:wmo:42050:1,2008-06-03T23:00:00Z,28.8425,-94.2433,2.0,187.9794371,47.39894514,-99999.0,'11111222,11111222,99999999' 
TABS,ioos:station:wmo:42050:1,2008-06-03T23:30:00Z,28.8425,-94.2433,2.0,185.8940721,43.13806903,-99999.0,'11111222,11111222,99999999' 
TABS,ioos:station:wmo:42050:1,2008-06-04T00:00:00Z,28.8425,-94.2433,2.0,204.2523658,35.68987531,-99999.0,'11111222,11111222,99999999' 
TABS,ioos:station:wmo:42050:1,2008-06-04T00:30:00Z,28.8425,-94.2433,2.0,206.2996345,31.89114297,-99999.0,'11111222,11111222,99999999' 
TABS,ioos:station:wmo:42050:1,2008-06-04T01:00:00Z,28.8425,-94.2433,2.0,213.0850974,27.33160076,-99999.0,'11111222,11111222,99999999' 
TABS,ioos:station:wmo:42050:1,2008-06-04T01:30:00Z,28.8425,-94.2433,2.0,220.4247558,15.86853805,-99999.0,'11111222,11111222,99999999' 
TABS,ioos:station:wmo:42050:1,2008-06-04T02:00:00Z,28.8425,-94.2433,2.0,233.383116,41.6124068,-99999.0,'11111222,11111222,99999999' 
TABS,ioos:station:wmo:42050:1,2008-06-04T02:30:00Z,28.8425,-94.2433,2.0,248.5638715,44.51950696,-99999.0,'11111222,11111222,99999999' 
TABS,ioos:station:wmo:42050:1,2008-06-04T03:00:00Z,28.8425,-94.2433,2.0,258.8338463,42.08665584,-99999.0,'11111222,11111222,99999999' 
TABS,ioos:station:wmo:42050:1,2008-06-04T03:30:00Z,28.8425,-94.2433,2.0,272.416468,41.98732428,-99999.0,'11111222,11111222,99999999' 
TABS,ioos:station:wmo:42050:1,2008-06-04T04:00:00Z,28.8425,-94.2433,2.0,280.8153271,41.99591528,-99999.0,'11111222,11111222,99999999' 
TABS,ioos:station:wmo:42050:1,2008-06-04T04:30:00Z,28.8425,-94.2433,2.0,295.1784212,42.30985819,-99999.0,'11111222,11111222,99999999' 
TABS,ioos:station:wmo:42050:1,2008-06-04T05:00:00Z,28.8425,-94.2433,2.0,305.4032493,46.95138869,-99999.0,'11111222,11111222,99999999' 
TABS,ioos:station:wmo:42050:1,2008-06-04T05:30:00Z,28.8425,-94.2433,2.0,313.1209102,47.64927387,-99999.0,'11111222,11111222,99999999' 
TABS,ioos:station:wmo:42050:1,2008-06-04T06:00:00Z,28.8425,-94.2433,2.0,317.5029471,48.41935667,-99999.0,'11111222,11111222,99999999' 
TABS,ioos:station:wmo:42050:1,2008-06-04T06:30:00Z,28.8425,-94.2433,2.0,326.2983783,53.67001863,-99999.0,'11111222,11111222,99999999' 
TABS,ioos:station:wmo:42050:1,2008-06-04T07:00:00Z,28.8425,-94.2433,2.0,333.9883894,50.02764436,-99999.0,'11111222,11111222,99999999' 
TABS,ioos:station:wmo:42050:1,2008-06-04T07:30:00Z,28.8425,-94.2433,2.0,336.8481875,51.75838676,-99999.0,'11111222,11111222,99999999' 
TABS,ioos:station:wmo:42050:1,2008-06-04T08:00:00Z,28.8425,-94.2433,2.0,340.6029228,47.63378318,-99999.0,'11111222,11111222,99999999' 
TABS,ioos:station:wmo:42050:1,2008-06-04T08:30:00Z,28.8425,-94.2433,2.0,351.7282061,47.95895745,-99999.0,'11111222,11111222,99999999' 
TABS,ioos:station:wmo:42050:1,2008-06-04T09:00:00Z,28.8425,-94.2433,2.0,356.897385,45.81716818,-99999.0,'11111222,11111222,99999999' 
TABS,ioos:station:wmo:42050:1,2008-06-04T09:30:00Z,28.8425,-94.2433,2.0,4.317160576,46.23116265,-99999.0,'11111222,11111222,99999999' 
TABS,ioos:station:wmo:42050:1,2008-06-04T10:00:00Z,28.8425,-94.2433,2.0,14.39659853,41.6684437,-99999.0,'11111222,11111222,99999999' 
TABS,ioos:station:wmo:42050:1,2008-06-04T10:30:00Z,28.8425,-94.2433,2.0,23.01914938,38.53862738,-99999.0,'11111222,11111222,99999999' 
TABS,ioos:station:wmo:42050:1,2008-06-04T11:00:00Z,28.8425,-94.2433,2.0,36.93269877,25.59601531,-99999.0,'11111222,11111222,99999999' 
TABS,ioos:station:wmo:42050:1,2008-06-04T11:30:00Z,28.8425,-94.2433,2.0,41.82513842,37.02437305,-99999.0,'11111222,11111222,99999999' 
TABS,ioos:station:wmo:42050:1,2008-06-04T12:00:00Z,28.8425,-94.2433,2.0,49.75368964,26.79251015,-99999.0,'11111222,11111222,99999999' 
TABS,ioos:station:wmo:42050:1,2008-06-04T12:30:00Z,28.8425,-94.2433,2.0,55.40622444,31.12255292,-99999.0,'11111222,11111222,99999999' 
TABS,ioos:station:wmo:42050:1,2008-06-04T13:00:00Z,28.8425,-94.2433,2.0,69.35042893,23.64936574,-99999.0,'11111222,11111222,99999999' 
TABS,ioos:station:wmo:42050:1,2008-06-04T13:30:00Z,28.8425,-94.2433,2.0,65.57909882,24.74376285,-99999.0,'11111222,11111222,99999999' 
TABS,ioos:station:wmo:42050:1,2008-06-04T14:00:00Z,28.8425,-94.2433,2.0,81.25385819,18.80871341,-99999.0,'11111222,11111222,99999999' 
TABS,ioos:station:wmo:42050:1,2008-06-04T14:30:00Z,28.8425,-94.2433,2.0,78.72182792,28.3270189,-99999.0,'11111222,11111222,99999999' 
TABS,ioos:station:wmo:42050:1,2008-06-04T15:00:00Z,28.8425,-94.2433,2.0,96.78387889,26.66670021,-99999.0,'11111222,11111222,99999999' 
TABS,ioos:station:wmo:42050:1,2008-06-04T15:30:00Z,28.8425,-94.2433,2.0,90.83724629,23.95255727,-99999.0,'11111222,11111222,99999999' 
TABS,ioos:station:wmo:42050:1,2008-06-04T16:00:00Z,28.8425,-94.2433,2.0,110.9169962,23.22025409,-99999.0,'11111222,11111222,99999999' 
TABS,ioos:station:wmo:42050:1,2008-06-04T16:30:00Z,28.8425,-94.2433,2.0,128.5036993,29.24989231,-99999.0,'11111222,11111222,99999999' 
TABS,ioos:station:wmo:42050:1,2008-06-04T17:00:00Z,28.8425,-94.2433,2.0,123.3526354,23.08147526,-99999.0,'11111222,11111222,99999999' 
TABS,ioos:station:wmo:42050:1,2008-06-04T17:30:00Z,28.8425,-94.2433,2.0,126.5425882,25.91442263,-99999.0,'11111222,11111222,99999999' 
TABS,ioos:station:wmo:42050:1,2008-06-04T18:00:00Z,28.8425,-94.2433,2.0,146.4934211,26.82821276,-99999.0,'11111222,11111222,99999999' 
TABS,ioos:station:wmo:42050:1,2008-06-04T18:30:00Z,28.8425,-94.2433,2.0,147.3261789,25.17348208,-99999.0,'11111222,11111222,99999999' 
TABS,ioos:station:wmo:42050:1,2008-06-04T19:00:00Z,28.8425,-94.2433,2.0,148.5811158,20.08483259,-99999.0,'11111222,11111222,99999999' 